QPF
0.04 0.05 0.05 0.04 0.04 0.03 0.03 0.03 0.04 0.05 0.06 0.07 0.10 0.10 0.10 0.08 0.06 0.07 0.06 0.07 0.08 0.07 0.05 0.03 0.02 0.02 0.02 0.02 0.02 0.04 0.05 0.04 0.04 0.05 0.05 0.04 0.03 0.03 0.02 0.02 0.02 0.03 0.04
0.04 0.05 0.07 0.05 0.04 0.03 0.02 0.02 0.03 0.05 0.06 0.07 0.09 0.09 0.09 0.08 0.07 0.06 0.07 0.07 0.08 0.09 0.07 0.04 0.02 0.02 0.02 0.02 0.03 0.03 0.05 0.05 0.04 0.05 0.06 0.05 0.05 0.04 0.03 0.03 0.02 0.03 0.04
0.04 0.04 0.05 0.07 0.04 0.03 0.03 0.02 0.02 0.03 0.04 0.08 0.11 0.11 0.10 0.09 0.08 0.07 0.08 0.08 0.07 0.08 0.09 0.07 0.04 0.03 0.02 0.03 0.04 0.03 0.04 0.04 0.03 0.04 0.05 0.06 0.05 0.04 0.04 0.04 0.03 0.03 0.04
0.04 0.04 0.04 0.05 0.06 0.04 0.03 0.02 0.01 0.02 0.03 0.05 0.08 0.11 0.11 0.10 0.08 0.08 0.08 0.09 0.08 0.08 0.09 0.09 0.06 0.05 0.03 0.03 0.04 0.04 0.04 0.04 0.04 0.03 0.03 0.04 0.05 0.05 0.04 0.04 0.04 0.03 0.04
0.03 0.04 0.05 0.04 0.05 0.05 0.04 0.03 0.02 0.02 0.02 0.02 0.05 0.09 0.10 0.10 0.09 0.08 0.08 0.09 0.09 0.09 0.09 0.08 0.07 0.06 0.05 0.04 0.04 0.05 0.05 0.04 0.04 0.03 0.03 0.04 0.04 0.04 0.05 0.04 0.04 0.05 0.04
0.04 0.04 0.04 0.04 0.04 0.06 0.05 0.04 0.04 0.03 0.02 0.02 0.03 0.06 0.09 0.10 0.10 0.09 0.10 0.09 0.09 0.10 0.10 0.09 0.07 0.05 0.05 0.05 0.05 0.05 0.05 0.05 0.04 0.03 0.03 0.04 0.04 0.04 0.04 0.04 0.04 0.05 0.06
0.05 0.04 0.03 0.04 0.04 0.05 0.06 0.05 0.05 0.06 0.05 0.04 0.05 0.06 0.08 0.10 0.11 0.11 0.10 0.10 0.09 0.09 0.09 0.10 0.09 0.06 0.05 0.04 0.04 0.04 0.05 0.04 0.04 0.04 0.03 0.03 0.03 0.04 0.04 0.04 0.04 0.04 0.05
0.05 0.04 0.04 0.04 0.03 0.04 0.06 0.07 0.06 0.06 0.06 0.06 0.07 0.08 0.09 0.10 0.11 0.11 0.10 0.10 0.09 0.09 0.09 0.09 0.10 0.08 0.06 0.05 0.04 0.04 0.03 0.04 0.04 0.03 0.03 0.03 0.03 0.03 0.04 0.05 0.05 0.05 0.04
0.05 0.05 0.04 0.03 0.03 0.03 0.05 0.05 0.05 0.05 0.05 0.06 0.06 0.07 0.10 0.12 0.13 0.12 0.11 0.10 0.11 0.10 0.09 0.09 0.09 0.10 0.08 0.06 0.06 0.05 0.04 0.03 0.03 0.02 0.02 0.02 0.03 0.03 0.04 0.04 0.05 0.06 0.06
0.04 0.04 0.04 0.03 0.02 0.02 0.04 0.04 0.04 0.04 0.04 0.05 0.06 0.06 0.07 0.09 0.13 0.15 0.14 0.13 0.14 0.13 0.11 0.10 0.09 0.09 0.10 0.09 0.07 0.07 0.05 0.04 0.03 0.02 0.02 0.01 0.02 0.03 0.04 0.04 0.04 0.05 0.05
0.04 0.04 0.04 0.03 0.02 0.01 0.01 0.02 0.03 0.03 0.03 0.04 0.05 0.05 0.05 0.07 0.09 0.12 0.14 0.15 0.16 0.15 0.14 0.13 0.11 0.11 0.11 0.11 0.10 0.08 0.06 0.05 0.04 0.03 0.02 0.02 0.03 0.03 0.04 0.05 0.05 0.05 0.05
0.06 0.04 0.04 0.03 0.02 0.01 0.01 0.01 0.01 0.01 0.02 0.02 0.03 0.04 0.04 0.05 0.07 0.07 0.10 0.13 0.14 0.15 0.15 0.14 0.12 0.13 0.14 0.15 0.13 0.11 0.09 0.08 0.06 0.06 0.05 0.05 0.05 0.05 0.05 0.05 0.05 0.05 0.04
0.04 0.04 0.04 0.03 0.02 0.01 0.01 0.01 0.01 0.01 0.01 0.02 0.03 0.03 0.03 0.04 0.06 0.07 0.06 0.08 0.10 0.11 0.12 0.12 0.12 0.12 0.12 0.15 0.16 0.14 0.12 0.11 0.09 0.07 0.07 0.06 0.06 0.06 0.06 0.06 0.06 0.05 0.04
0.01 0.02 0.03 0.03 0.04 0.03 0.02 0.01 0.01 0.01 0.01 0.02 0.03 0.02 0.03 0.04 0.05 0.07 0.07 0.06 0.06 0.08 0.09 0.08 0.08 0.09 0.08 0.10 0.14 0.16 0.15 0.13 0.11 0.09 0.07 0.06 0.06 0.06 0.06 0.06 0.06 0.06 0.05
0.01 0.01 0.01 0.02 0.02 0.03 0.04 0.02 0.01 0.01 0.01 0.02 0.02 0.02 0.02 0.03 0.03 0.05 0.07 0.07 0.06 0.06 0.07 0.07 0.06 0.07 0.07 0.07 0.09 0.13 0.16 0.16 0.13 0.11 0.09 0.08 0.07 0.07 0.07 0.07 0.07 0.07 0.07
0.01 0.01 0.01 0.01 0.01 0.02 0.03 0.04 0.04 0.03 0.02 0.02 0.02 0.03 0.02 0.02 0.03 0.03 0.05 0.07 0.08 0.07 0.06 0.06 0.06 0.06 0.06 0.06 0.07 0.09 0.12 0.16 0.17 0.13 0.10 0.08 0.08 0.07 0.08 0.09 0.10 0.10 0.09
0.01 0.01 0.01 0.01 0.02 0.02 0.03 0.03 0.03 0.03 0.03 0.03 0.02 0.02 0.03 0.03 0.04 0.04 0.05 0.06 0.07 0.09 0.09 0.07 0.05 0.06 0.06 0.05 0.06 0.08 0.08 0.11 0.16 0.18 0.14 0.11 0.10 0.09 0.07 0.08 0.10 0.12 0.12
0.01 0.01 0.01 0.01 0.02 0.02 0.02 0.02 0.03 0.03 0.03 0.03 0.02 0.02 0.02 0.03 0.03 0.03 0.04 0.06 0.07 0.08 0.11 0.11 0.09 0.08 0.07 0.06 0.05 0.06 0.07 0.08 0.11 0.15 0.17 0.15 0.13 0.11 0.10 0.10 0.10 0.11 0.11
0.01 0.01 0.01 0.01 0.02 0.02 0.02 0.02 0.02 0.02 0.03 0.03 0.03 0.02 0.02 0.02 0.02 0.02 0.03 0.04 0.05 0.07 0.08 0.11 0.12 0.11 0.10 0.09 0.07 0.06 0.06 0.07 0.08 0.10 0.13 0.14 0.13 0.12 0.11 0.11 0.11 0.11 0.10
0.01 0.01 0.01 0.01 0.02 0.02 0.02 0.02 0.02 0.02 0.03 0.03 0.03 0.03 0.02 0.02 0.02 0.03 0.03 0.04 0.04 0.05 0.07 0.08 0.09 0.09 0.09 0.08 0.07 0.07 0.07 0.08 0.08 0.08 0.09 0.09 0.08 0.08 0.07 0.08 0.09 0.09 0.09
0.01 0.01 0.01 0.01 0.02 0.03 0.03 0.02 0.02 0.03 0.03 0.03 0.03 0.03 0.02 0.02 0.02 0.03 0.04 0.05 0.04 0.05 0.05 0.06 0.07 0.07 0.08 0.08 0.07 0.06 0.07 0.07 0.07 0.08 0.08 0.07 0.07 0.06 0.06 0.06 0.07 0.07 0.07
0.01 0.01 0.01 0.01 0.01 0.02 0.02 0.02 0.02 0.02 0.03 0.03 0.03 0.02 0.02 0.02 0.02 0.03 0.05 0.05 0.05 0.05 0.05 0.05 0.06 0.07 0.07 0.07 0.06 0.05 0.06 0.06 0.06 0.06 0.06 0.06 0.06 0.07 0.07 0.06 0.06 0.07 0.07
0.01 0.01 0.01 0.01 0.01 0.01 0.03 0.02 0.02 0.02 0.02 0.03 0.03 0.03 0.03 0.03 0.03 0.04 0.05 0.06 0.06 0.06 0.05 0.05 0.05 0.05 0.06 0.05 0.05 0.05 0.05 0.05 0.05 0.05 0.05 0.04 0.04 0.05 0.06 0.06 0.06 0.06 0.06
0.01 0.01 0.01 0.01 0.01 0.01 0.02 0.02 0.02 0.02 0.02 0.02 0.03 0.03 0.03 0.04 0.04 0.05 0.06 0.05 0.05 0.05 0.05 0.05 0.04 0.05 0.04 0.04 0.04 0.04 0.04 0.04 0.03 0.04 0.04 0.03 0.03 0.03 0.04 0.05 0.06 0.06 0.06
0.01 0.02 0.02 0.01 0.01 0.01 0.01 0.02 0.02 0.02 0.02 0.03 0.03 0.03 0.04 0.05 0.05 0.06 0.06 0.05 0.04 0.04 0.05 0.05 0.05 0.05 0.04 0.03 0.03 0.03 0.04 0.05 0.04 0.03 0.03 0.02 0.03 0.03 0.04 0.04 0.05 0.06 0.06
0.01 0.02 0.02 0.01 0.01 0.02 0.02 0.01 0.02 0.03 0.03 0.03 0.04 0.04 0.05 0.05 0.06 0.06 0.06 0.05 0.04 0.04 0.05 0.05 0.05 0.06 0.05 0.04 0.03 0.03 0.03 0.05 0.05 0.04 0.03 0.03 0.03 0.03 0.04 0.04 0.04 0.05 0.06
MSLP
1028.80 1029.16 1029.40 1029.47 1029.35 1029.04 1028.54 1027.91 1027.19 1026.44 1025.70 1024.98 1024.27 1023.55 1022.79 1021.98 1021.10 1020.18 1019.27 1018.43 1017.72 1017.19 1016.85 1016.67 1016.58 1016.47 1016.24 1015.80 1015.09 1014.13 1012.99 1011.78 1010.66 1009.80 1009.33 1009.31 1009.77 1010.63 1011.81 1013.14 1014.47 1015.68 1016.71
1028.93 1029.24 1029.42 1029.42 1029.23 1028.85 1028.31 1027.66 1026.95 1026.23 1025.52 1024.84 1024.15 1023.42 1022.62 1021.71 1020.70 1019.61 1018.52 1017.50 1016.64 1015.98 1015.57 1015.36 1015.27 1015.21 1015.03 1014.64 1013.96 1013.01 1011.84 1010.57 1009.39 1008.45 1007.91 1007.86 1008.31 1009.23 1010.50 1011.97 1013.46 1014.85 1016.05
1029.09 1029.34 1029.46 1029.39 1029.13 1028.69 1028.11 1027.44 1026.74 1026.06 1025.40 1024.76 1024.10 1023.36 1022.51 1021.51 1020.36 1019.10 1017.81 1016.60 1015.55 1014.74 1014.21 1013.93 1013.83 1013.77 1013.64 1013.30 1012.68 1011.76 1010.61 1009.34 1008.13 1007.16 1006.58 1006.50 1006.94 1007.88 1009.21 1010.77 1012.40 1013.94 1015.30
1029.25 1029.46 1029.51 1029.37 1029.04 1028.54 1027.92 1027.24 1026.55 1025.90 1025.28 1024.68 1024.05 1023.31 1022.42 1021.33 1020.05 1018.62 1017.14 1015.72 1014.47 1013.48 1012.79 1012.41 1012.24 1012.17 1012.05 1011.77 1011.23 1010.40 1009.33 1008.13 1006.96 1006.01 1005.42 1005.32 1005.76 1006.69 1008.03 1009.63 1011.33 1012.98 1014.46
1029.38 1029.54 1029.53 1029.33 1028.93 1028.38 1027.72 1027.02 1026.34 1025.70 1025.12 1024.55 1023.94 1023.20 1022.27 1021.11 1019.72 1018.14 1016.48 1014.86 1013.40 1012.20 1011.33 1010.80 1010.52 1010.40 1010.29 1010.06 1009.62 1008.92 1007.99 1006.92 1005.88 1005.01 1004.47 1004.39 1004.80 1005.70 1007.02 1008.60 1010.31 1012.00 1013.55
1029.45 1029.56 1029.50 1029.24 1028.79 1028.19 1027.49 1026.76 1026.07 1025.44 1024.87 1024.32 1023.72 1022.98 1022.03 1020.82 1019.34 1017.64 1015.83 1014.02 1012.35 1010.94 1009.85 1009.13 1008.70 1008.49 1008.35 1008.16 1007.83 1007.30 1006.56 1005.71 1004.85 1004.14 1003.71 1003.67 1004.08 1004.93 1006.18 1007.70 1009.36 1011.03 1012.60
1029.41 1029.49 1029.39 1029.08 1028.58 1027.94 1027.20 1026.45 1025.74 1025.10 1024.53 1023.98 1023.38 1022.63 1021.67 1020.43 1018.89 1017.11 1015.17 1013.20 1011.34 1009.70 1008.38 1007.43 1006.82 1006.47 1006.27 1006.11 1005.88 1005.52 1005.02 1004.42 1003.81 1003.31 1003.04 1003.09 1003.52 1004.33 1005.50 1006.92 1008.49 1010.10 1011.65
1029.24 1029.28 1029.15 1028.82 1028.30 1027.62 1026.87 1026.09 1025.36 1024.70 1024.10 1023.54 1022.92 1022.17 1021.20 1019.94 1018.38 1016.55 1014.53 1012.43 1010.40 1008.55 1006.99 1005.80 1004.96 1004.43 1004.13 1003.95 1003.80 1003.61 1003.34 1003.02 1002.69 1002.44 1002.36 1002.54 1003.02 1003.81 1004.90 1006.23 1007.69 1009.22 1010.71
1028.92 1028.93 1028.78 1028.44 1027.92 1027.25 1026.49 1025.71 1024.95 1024.27 1023.64 1023.05 1022.41 1021.64 1020.66 1019.41 1017.85 1016.01 1013.94 1011.76 1009.59 1007.56 1005.78 1004.33 1003.25 1002.51 1002.06 1001.82 1001.70 1001.63 1001.56 1001.49 1001.44 1001.45 1001.58 1001.91 1002.46 1003.26 1004.30 1005.54 1006.91 1008.36 1009.81
1028.43 1028.41 1028.26 1027.94 1027.45 1026.82 1026.09 1025.33 1024.57 1023.87 1023.21 1022.57 1021.90 1021.11 1020.13 1018.89 1017.35 1015.53 1013.47 1011.25 1008.99 1006.82 1004.85 1003.17 1001.84 1000.87 1000.23 999.87 999.71 999.69 999.76 999.88 1000.06 1000.29 1000.63 1001.10 1001.74 1002.58 1003.60 1004.79 1006.11 1007.50 1008.93
1027.76 1027.73 1027.60 1027.33 1026.91 1026.35 1025.70 1024.98 1024.26 1023.55 1022.86 1022.19 1021.47 1020.66 1019.67 1018.45 1016.96 1015.18 1013.17 1010.97 1008.69 1006.44 1004.32 1002.46 1000.90 999.69 998.83 998.29 998.03 997.98 998.09 998.31 998.62 999.01 999.50 1000.10 1000.83 1001.71 1002.75 1003.93 1005.23 1006.62 1008.05
1026.93 1026.90 1026.81 1026.62 1026.30 1025.87 1025.32 1024.70 1024.02 1023.34 1022.64 1021.93 1021.17 1020.32 1019.33 1018.14 1016.70 1015.01 1013.08 1010.96 1008.72 1006.46 1004.27 1002.27 1000.53 999.11 998.02 997.27 996.83 996.66 996.70 996.91 997.26 997.72 998.29 998.96 999.75 1000.67 1001.74 1002.94 1004.26 1005.67 1007.13
1026.00 1025.97 1025.94 1025.84 1025.66 1025.36 1024.96 1024.46 1023.87 1023.23 1022.54 1021.81 1021.02 1020.14 1019.14 1017.97 1016.61 1015.02 1013.21 1011.22 1009.09 1006.89 1004.71 1002.65 1000.79 999.19 997.89 996.91 996.25 995.88 995.77 995.87 996.15 996.57 997.12 997.79 998.60 999.53 1000.62 1001.84 1003.19 1004.64 1006.16
1025.01 1025.00 1025.03 1025.04 1024.99 1024.86 1024.61 1024.25 1023.78 1023.21 1022.55 1021.81 1020.99 1020.09 1019.09 1017.95 1016.66 1015.19 1013.54 1011.71 1009.75 1007.68 1005.59 1003.55 1001.64 999.92 998.44 997.25 996.36 995.75 995.42 995.32 995.43 995.72 996.16 996.76 997.52 998.42 999.49 1000.72 1002.08 1003.57 1005.13
1024.06 1024.06 1024.14 1024.24 1024.32 1024.34 1024.26 1024.05 1023.70 1023.22 1022.61 1021.88 1021.06 1020.14 1019.14 1018.04 1016.83 1015.49 1014.01 1012.38 1010.62 1008.74 1006.80 1004.85 1002.97 1001.20 999.61 998.25 997.13 996.29 995.70 995.35 995.23 995.32 995.59 996.05 996.68 997.50 998.50 999.68 1001.02 1002.49 1004.06
1023.21 1023.21 1023.31 1023.48 1023.66 1023.82 1023.88 1023.82 1023.60 1023.22 1022.67 1021.98 1021.17 1020.26 1019.27 1018.21 1017.08 1015.87 1014.56 1013.13 1011.59 1009.94 1008.20 1006.41 1004.61 1002.87 1001.24 999.76 998.48 997.42 996.59 996.00 995.63 995.48 995.53 995.79 996.25 996.92 997.79 998.86 1000.11 1001.50 1003.01
1022.52 1022.49 1022.59 1022.78 1023.04 1023.28 1023.47 1023.54 1023.45 1023.17 1022.70 1022.07 1021.29 1020.40 1019.44 1018.43 1017.38 1016.28 1015.13 1013.91 1012.59 1011.17 1009.65 1008.05 1006.40 1004.75 1003.14 1001.62 1000.24 999.03 998.02 997.21 996.62 996.23 996.06 996.09 996.34 996.81 997.49 998.38 999.47 1000.71 1002.08
1022.00 1021.92 1021.98 1022.17 1022.44 1022.75 1023.02 1023.20 1023.21 1023.04 1022.67 1022.11 1021.40 1020.56 1019.65 1018.69 1017.71 1016.72 1015.71 1014.66 1013.53 1012.33 1011.03 1009.63 1008.15 1006.63 1005.11 1003.63 1002.24 1000.96 999.84 998.89 998.12 997.55 997.17 996.99 997.02 997.25 997.71 998.36 999.20 1000.21 1001.36
1021.65 1021.49 1021.49 1021.63 1021.89 1022.22 1022.54 1022.80 1022.91 1022.85 1022.58 1022.12 1021.49 1020.73 1019.88 1018.99 1018.09 1017.19 1016.28 1015.37 1014.40 1013.38 1012.26 1011.05 1009.76 1008.40 1007.01 1005.62 1004.28 1003.02 1001.88 1000.87 1000.02 999.32 998.79 998.43 998.25 998.26 998.45 998.83 999.38 1000.10 1000.95
1021.42 1021.18 1021.10 1021.18 1021.39 1021.71 1022.06 1022.37 1022.56 1022.60 1022.44 1022.09 1021.57 1020.90 1020.14 1019.33 1018.51 1017.69 1016.87 1016.05 1015.21 1014.31 1013.34 1012.29 1011.16 1009.96 1008.72 1007.47 1006.24 1005.07 1003.98 1003.00 1002.13 1001.39 1000.77 1000.29 999.94 999.74 999.68 999.77 1000.02 1000.41 1000.93
1021.26 1020.95 1020.79 1020.79 1020.96 1021.24 1021.59 1021.93 1022.19 1022.32 1022.27 1022.04 1021.64 1021.09 1020.44 1019.72 1018.98 1018.23 1017.48 1016.73 1015.97 1015.16 1014.30 1013.36 1012.36 1011.31 1010.22 1009.11 1008.03 1006.99 1006.02 1005.12 1004.32 1003.59 1002.96 1002.41 1001.94 1001.57 1001.30 1001.13 1001.07 1001.13 1001.32
1021.15 1020.78 1020.56 1020.49 1020.60 1020.84 1021.17 1021.53 1021.83 1022.03 1022.09 1021.97 1021.70 1021.27 1020.74 1020.13 1019.48 1018.80 1018.12 1017.42 1016.71 1015.96 1015.16 1014.31 1013.41 1012.47 1011.51 1010.55 1009.62 1008.73 1007.90 1007.14 1006.43 1005.78 1005.18 1004.62 1004.09 1003.61 1003.16 1002.78 1002.47 1002.24 1002.11
1021.07 1020.67 1020.40 1020.29 1020.34 1020.54 1020.84 1021.18 1021.51 1021.76 1021.89 1021.88 1021.72 1021.43 1021.02 1020.52 1019.97 1019.38 1018.76 1018.12 1017.44 1016.73 1015.98 1015.18 1014.35 1013.50 1012.65 1011.81 1011.02 1010.27 1009.59 1008.96 1008.38 1007.83 1007.30 1006.77 1006.23 1005.69 1005.14 1004.61 1004.11 1003.65 1003.27
1021.02 1020.63 1020.34 1020.19 1020.20 1020.35 1020.60 1020.92 1021.23 1021.50 1021.68 1021.75 1021.69 1021.51 1021.22 1020.85 1020.40 1019.91 1019.36 1018.78 1018.15 1017.48 1016.77 1016.01 1015.24 1014.45 1013.68 1012.94 1012.26 1011.64 1011.08 1010.58 1010.11 1009.67 1009.22 1008.75 1008.25 1007.70 1007.12 1006.50 1005.88 1005.28 1004.72
1021.03 1020.67 1020.39 1020.23 1020.20 1020.29 1020.49 1020.74 1021.02 1021.27 1021.46 1021.57 1021.58 1021.49 1021.31 1021.05 1020.73 1020.33 1019.88 1019.38 1018.81 1018.19 1017.53 1016.82 1016.09 1015.36 1014.65 1013.99 1013.39 1012.85 1012.39 1011.99 1011.62 1011.27 1010.91 1010.51 1010.07 1009.56 1008.98 1008.36 1007.71 1007.04 1006.39
1021.12 1020.81 1020.55 1020.39 1020.33 1020.36 1020.49 1020.66 1020.87 1021.06 1021.23 1021.34 1021.39 1021.37 1021.28 1021.12 1020.90 1020.62 1020.28 1019.86 1019.38 1018.84 1018.24 1017.59 1016.91 1016.24 1015.58 1014.98 1014.44 1013.97 1013.57 1013.24 1012.94 1012.66 1012.37 1012.04 1011.66 1011.21 1010.69 1010.11 1009.48 1008.83 1008.16
Thickness
5495 5496 5498 5500 5504 5508 5512 5515 5519 5522 5526 5529 5531 5533 5536 5538 5540 5541 5542 5544 5546 5547 5549 5552 5554 5557 5560 5563 5566 5569 5572 5575 5580 5584 5590 5596 5601 5605 5609 5612 5614 5616 5618
5483 5486 5488 5490 5492 5496 5499 5502 5505 5509 5513 5516 5518 5521 5523 5526 5529 5529 5531 5533 5534 5536 5538 5540 5543 5545 5548 5551 5554 5558 5561 5565 5569 5572 5577 5584 5590 5597 5601 5604 5606 5609 5610
5474 5476 5478 5479 5482 5484 5486 5490 5493 5496 5500 5503 5505 5508 5509 5512 5514 5517 5520 5522 5523 5525 5526 5529 5531 5533 5537 5540 5544 5548 5551 5554 5557 5562 5567 5571 5578 5583 5591 5595 5599 5601 5603
5465 5466 5468 5469 5471 5473 5475 5477 5479 5483 5486 5489 5491 5493 5496 5498 5502 5505 5507 5510 5511 5513 5515 5517 5520 5522 5525 5529 5533 5537 5541 5544 5547 5551 5556 5562 5567 5570 5577 5584 5589 5592 5594
5456 5457 5458 5459 5460 5462 5463 5465 5467 5470 5474 5476 5477 5479 5482 5485 5488 5491 5494 5497 5499 5501 5504 5506 5508 5512 5514 5518 5522 5526 5530 5534 5537 5541 5545 5550 5555 5560 5564 5572 5578 5581 5585
5447 5448 5448 5449 5449 5451 5451 5452 5454 5458 5460 5462 5464 5467 5469 5471 5475 5479 5482 5485 5488 5490 5493 5496 5498 5502 5504 5508 5512 5516 5520 5524 5527 5532 5536 5540 5544 5549 5553 5560 5565 5570 5575
5436 5437 5437 5438 5438 5439 5439 5441 5443 5446 5447 5450 5452 5455 5457 5459 5463 5467 5470 5473 5477 5480 5484 5486 5489 5493 5496 5498 5502 5507 5510 5514 5517 5522 5526 5531 5536 5540 5543 5548 5552 5557 5563
5426 5426 5426 5426 5426 5427 5427 5429 5431 5434 5436 5438 5440 5444 5446 5448 5451 5455 5458 5462 5467 5471 5474 5476 5479 5483 5486 5488 5492 5497 5501 5504 5508 5512 5516 5521 5525 5529 5534 5538 5540 5544 5550
5416 5415 5415 5415 5416 5416 5416 5417 5420 5422 5424 5426 5429 5432 5435 5437 5441 5445 5448 5452 5456 5461 5464 5467 5470 5474 5477 5480 5483 5488 5492 5495 5499 5502 5506 5511 5516 5520 5524 5527 5531 5535 5539
5404 5404 5404 5404 5404 5405 5405 5406 5408 5410 5411 5414 5417 5421 5424 5427 5430 5434 5438 5443 5447 5450 5454 5458 5460 5464 5468 5471 5474 5479 5482 5485 5489 5492 5496 5501 5505 5509 5513 5517 5521 5526 5530
5392 5392 5391 5391 5392 5393 5394 5395 5397 5398 5400 5403 5406 5409 5413 5417 5420 5424 5428 5432 5437 5440 5445 5448 5450 5454 5459 5462 5465 5469 5473 5477 5480 5483 5487 5491 5495 5499 5503 5507 5512 5516 5520
5381 5381 5381 5381 5381 5382 5383 5385 5386 5388 5390 5393 5395 5398 5402 5406 5410 5414 5418 5422 5426 5430 5434 5436 5439 5443 5449 5452 5456 5460 5464 5467 5471 5474 5477 5481 5485 5489 5493 5497 5502 5507 5511
5371 5371 5370 5370 5371 5371 5372 5373 5374 5377 5379 5381 5385 5388 5391 5394 5398 5402 5407 5411 5415 5419 5423 5425 5428 5432 5437 5442 5446 5449 5453 5458 5461 5464 5467 5471 5474 5478 5483 5487 5492 5497 5502
5361 5360 5360 5360 5360 5361 5361 5362 5364 5365 5368 5371 5374 5377 5379 5382 5386 5391 5395 5400 5404 5409 5411 5414 5418 5422 5427 5431 5435 5438 5442 5447 5451 5454 5458 5461 5464 5468 5472 5478 5482 5487 5491
5353 5351 5350 5349 5349 5350 5351 5351 5353 5354 5357 5359 5363 5366 5369 5372 5376 5380 5385 5389 5393 5397 5400 5404 5408 5411 5415 5420 5424 5428 5433 5437 5441 5445 5448 5451 5455 5459 5463 5468 5473 5477 5481
5343 5341 5340 5339 5339 5339 5340 5341 5342 5344 5346 5348 5351 5354 5356 5360 5364 5368 5373 5377 5381 5385 5389 5393 5397 5401 5405 5410 5413 5418 5422 5427 5430 5435 5438 5441 5443 5448 5453 5458 5463 5467 5472
5332 5331 5329 5328 5327 5327 5328 5329 5332 5334 5335 5338 5340 5343 5346 5350 5354 5357 5361 5366 5369 5373 5377 5382 5385 5389 5394 5398 5402 5406 5411 5415 5419 5422 5426 5430 5434 5437 5441 5446 5451 5456 5461
5323 5321 5319 5318 5317 5317 5318 5319 5321 5323 5325 5328 5330 5332 5335 5339 5342 5345 5350 5353 5356 5360 5365 5369 5373 5376 5381 5386 5390 5394 5399 5403 5407 5411 5415 5419 5423 5426 5430 5435 5440 5445 5449
5312 5310 5309 5308 5307 5307 5308 5309 5311 5313 5316 5318 5320 5321 5323 5327 5330 5334 5338 5341 5344 5347 5351 5356 5360 5364 5369 5373 5378 5381 5385 5391 5396 5400 5403 5407 5411 5416 5419 5424 5429 5434 5438
5303 5300 5299 5298 5298 5299 5298 5299 5301 5303 5306 5308 5310 5311 5313 5316 5319 5322 5325 5328 5331 5334 5338 5343 5348 5352 5356 5361 5366 5369 5375 5381 5385 5388 5392 5395 5400 5405 5408 5413 5418 5423 5427
5293 5291 5290 5289 5289 5289 5289 5290 5292 5294 5297 5299 5300 5302 5304 5306 5308 5311 5314 5316 5319 5322 5325 5330 5335 5339 5344 5348 5353 5358 5362 5368 5372 5377 5381 5384 5388 5394 5398 5402 5406 5412 5415
5284 5282 5281 5281 5281 5280 5280 5282 5284 5286 5288 5289 5291 5292 5294 5296 5298 5300 5302 5304 5306 5309 5312 5317 5322 5327 5331 5336 5340 5345 5350 5355 5359 5365 5368 5372 5377 5382 5386 5389 5394 5398 5401
5275 5274 5272 5272 5273 5272 5272 5273 5276 5277 5278 5279 5281 5282 5284 5286 5287 5289 5291 5293 5295 5297 5301 5305 5310 5315 5319 5322 5328 5333 5337 5341 5345 5350 5355 5359 5363 5368 5372 5376 5379 5383 5387
5266 5265 5264 5263 5264 5264 5264 5265 5267 5268 5268 5270 5271 5273 5274 5276 5278 5279 5281 5283 5284 5286 5289 5293 5298 5302 5306 5310 5314 5319 5323 5328 5331 5335 5340 5345 5348 5353 5357 5361 5365 5369 5373
5259 5257 5255 5255 5255 5256 5256 5258 5259 5259 5260 5261 5262 5264 5265 5267 5268 5270 5271 5272 5274 5276 5278 5282 5285 5289 5294 5299 5302 5307 5311 5315 5319 5322 5326 5330 5333 5338 5342 5346 5350 5354 5358
5250 5249 5247 5247 5246 5247 5249 5250 5250 5250 5250 5252 5254 5255 5256 5258 5259 5261 5262 5263 5265 5267 5270 5273 5276 5280 5284 5288 5291 5294 5298 5303 5307 5310 5313 5316 5320 5324 5328 5332 5335 5339 5344